Regional Weather Roundup
Issued by NWS

Home | Current Version | Previous Version | Graphics & Text | Print | Product List | Glossary Off
Versions: 1 2 3 4 5 6 7 8 9 10 11 12 13 14 15 16 17 18 19 20 21 22 23 24 25 26 27 28 29 30 31 32 33 34 35 36 37 38 39 40 41 42 43 44 45 46 47 48 49 50

000
ASUS43 KMKX 251700
RWRWI

WISCONSIN REGIONAL WEATHER ROUNDUP
NATIONAL WEATHER SERVICE MILWAUKEE/SULLIVAN WI
1100 AM CST TUE NOV 25 2014

NOTE: "FAIR" INDICATES FEW OR NO CLOUDS BELOW 12,000 FEET WITH NO
SIGNIFICANT WEATHER AND/OR OBSTRUCTIONS TO VISIBILITY.

WIZ001-002-006>008-014>016-023>028-251800-
NORTHWEST WISCONSIN

CITY           SKY/WX    TMP DP  RH WIND       PRES   REMARKS
SUPERIOR ARPT  SUNNY     17   9  69 W6        30.04R WCI   9
ASHLAND        MOSUNNY   17  11  77 W7        30.03R WCI   8
HAYWARD        CLOUDY    14   9  80 VRB3      30.01R
SIREN          MOSUNNY   16   9  74 SW5       30.04R WCI   9
CUMBERLAND     MOSUNNY   14   9  79 W3        30.01S
RICE LAKE      LGT SNOW  15   9  78 CALM      30.04S
CHETEK         FLURRIES  16   9  75 CALM      30.04R
LADYSMITH      FLURRIES  16  11  78 W5        30.03R WCI   9
EAU CLAIRE     NOT AVBL
MENOMONIE      PTSUNNY   17  10  74 W5        30.06R WCI  10
NEW RICHMOND   SUNNY     17  10  75 W5        30.05R WCI   9
OSCEOLA        SUNNY     16  11  80 CALM      30.09R
$$

WIZ003>005-009-010-017-018-251800-
NORTH CENTRAL WISCONSIN

CITY           SKY/WX    TMP DP  RH WIND       PRES   REMARKS
MANITOWISH WTR PTSUNNY   16  10  77 NW9       29.94R WCI   5
ARBOR VITAE    FLURRIES  19  13  76 W7        29.93R WCI  10
WOODRUFF       FLURRIES  19  13  76 W7        29.93R WCI  10
RHINELANDER    CLOUDY    17  10  74 W7        29.94R WCI   8
EAGLE RIVER    LGT SNOW  18  11  74 W8        29.92R WCI   8
LAND O LAKES   LGT SNOW  20  14  79 NW6       29.92R WCI  12
PHILLIPS       LGT SNOW  15  10  78 W5        29.97R WCI   8
TOMAHAWK       MOSUNNY   17  10  74 CALM      29.97R
MEDFORD        LGT SNOW  15  10  79 W10       29.98R WCI   3
MERRILL        PTSUNNY   19  11  72 NW8       29.98R WCI   8
$$

WIZ029-030-035-036-043>047-251800-
CENTRAL WISCONSIN

CITY           SKY/WX    TMP DP  RH WIND       PRES   REMARKS
WAUSAU         FLURRIES  19  13  77 W10       29.98R WCI   7
MOSINEE        FLURRIES  18  16  93 W9        30.00R WCI   6
MARSHFIELD     CLOUDY    18   9  68 NW9       30.01R WCI   7
STEVENS POINT  FLURRIES  18  12  79 W12       30.01R WCI   5
WAUPACA        MOSUNNY   24  15  67 W6        30.02R WCI  17
WAUTOMA        NOT AVBL
WISC RAPIDS    CLOUDY    18  10  71 W9        30.04R WCI   7
CAMP DOUGLAS   NOT AVBL
$$

WIZ011>013-019>022-031-037>040-048>050-251800-
NORTHEAST WISCONSIN

CITY           SKY/WX    TMP DP  RH WIND       PRES   REMARKS
ANTIGO         MOSUNNY   18  12  77 W13       29.95R WCI   5
SHAWANO        CLOUDY    25  18  73 NW9       29.99R WCI  16
OCONTO         CLOUDY    25  19  78 W6        29.98R WCI  18
STURGEON BAY   CLOUDY    27  18  69 NW12      29.96R WCI  16
GREEN BAY      CLOUDY    24  16  71 W9        30.00R WCI  14
MANITOWOC      NOT AVBL
APPLETON       CLOUDY    21  18  86 W12       30.01R WCI   9
CLINTONVILLE   PTSUNNY   23  16  74 NW9       30.00R WCI  13
OSHKOSH        FLURRIES  22  15  75 W12       30.02R WCI  10
$$

WIZ032>034-041-042-053>061-251800-
SOUTHWEST WISCONSIN

CITY           SKY/WX    TMP DP  RH WIND       PRES   REMARKS
LA CROSSE      SUNNY     23  12  62 NW3       30.08R
SPARTA         FLURRIES  20  13  76 NW5       30.07R WCI  13
VIROQUA        CLOUDY    18  13  82 SW6       30.04R WCI  10
BOSCOBEL       PTSUNNY   21  13  71 VRB6      30.10R WCI  13
PRAIRIE DU CHI SUNNY     18   9  69 SW7       30.10S WCI   9
PLATTEVILLE    CLOUDY    19  14  82 W8        30.09R WCI   9
$$

WIZ056-057-062-063-064-067-068-251800-
SOUTH CENTRAL WISCONSIN

CITY           SKY/WX    TMP DP  RH WIND       PRES   REMARKS
REEDSBURG      CLOUDY    19  14  79 W6        30.05R WCI  11
BARABOO/DELLS  CLOUDY    20  15  81 W7        30.04S WCI  11
LONE ROCK      NOT AVBL
MINERAL POINT  CLOUDY    21  18  86 W10       30.06R WCI  10
MADISON        CLOUDY    21  15  78 VRB6      30.06R WCI  13
MIDDLETON      CLOUDY    23  16  74 NW7       30.06R WCI  15
WATERTOWN      CLOUDY    22  17  81 W7        30.05R WCI  13
MONROE         MOSUNNY   21  18  86 W9        30.05S WCI  11
JANESVILLE     PTSUNNY   23  16  74 W8        30.07R WCI  14
$$

WIZ051-052-058>065-066-070>072-251800-
SOUTHEAST WISCONSIN

CITY           SKY/WX    TMP DP  RH WIND       PRES   REMARKS
MILWAUKEE      PTSUNNY   25  17  72 W10       30.05R WCI  15
WAUKESHA       CLOUDY    21  16  79 W14       30.05R WCI   8
MILWAUKEE/TIMM CLOUDY    25  18  74 W10       30.05R WCI  15
RACINE         CLOUDY    24  17  74 W13       30.07R WCI  12
BURLINGTON     MOSUNNY   22  16  78 W9        30.06R WCI  12
KENOSHA        PTSUNNY   24  18  77 W13       30.06R WCI  12
FOND DU LAC    CLOUDY    22  14  71 W12       30.03R WCI  10
SHEBOYGAN      CLOUDY    24  17  74 W15       30.01R WCI  11
WEST BEND      CLOUDY    23  18  80 NW8       30.02R WCI  14
JUNEAU         CLOUDY    21  15  79 W10       30.05R WCI  10
$$

LSZ147-162-251800-
LAKE SUPERIOR

STATION/POSITION TIME  TEMP    WIND        PRES    WAVE
                       AIR SEA DIR/SP/G            HT/PER
                 (UTC) (F)     (DEG/KT/KT) (MB)    (FT/S)
DEVILS ISLAND    1600   19     290/  9/ 13 1017.0R
PORT WING        1600   17     210/  6/ 10 1016.6R
SAXON HARBOR     1600   19     230/  6/  9 1015.9R
$$

LMZ867-665-643>646-251800-
LAKE MICHIGAN

STATION/POSITION TIME  TEMP    WIND        PRES    WAVE
                       AIR SEA DIR/SP/G            HT/PER
                 (UTC) (F)     (DEG/KT/KT) (MB)    (FT/S)
CHAMBERS ISLAND  1600   26     300/  8/ 13 1013.9R
N MID LAKE BUOY  1550   28 42  300/ 21/ 25 1012.4R   5/ 5
NORTHPORT PIER   1628   27     300/ 11/ 19 1013.9R
SISTER BAY       1613          320/ 20/ 22   N/A
KEWAUNEE LAKESHO 1600   25     290/  7/ 12 1013.6R
SHEBOYGAN LAKESH 1600   24 36  280/ 13/ 16 1016.9R
PORT WASHINGTON  1640   25     300/  7/ 12 1017.9R
MILWAUKEE LAKESH 1600   24     290/  9/ 13   N/A
S MID LAKE BUOY  1550   28 42  270/ 17/ 21 1017.1R   5/ 5
KENOSHA   LAKESH 1600   23     280/ 11/ 16 1017.6R
$$

TC  - TEMPERATURE IN CELSIUS
VSB - VISIBILITY IN STATUTE MILES
WCI - WIND CHILL INDEX
HX  - HEAT INDEX



USA.gov is the U.S. government's official web portal to all federal, state and local government web resources and services.